EW7401 Weather Reports


Display with metric or nautical units.
time (UTC)temp
F
wind
direction
speed
MPH
gust
MPH
rain 1hr
in
rain 24hr
in
rain mn
in
humidity
%
barometer
mb
20220524182606 52 0 0.0 0.0 0.00 0.00 0.00 83 1016.3
20220524182104 52 0 0.0 0.0 0.00 0.00 0.00 83 1016.3
20220524181604 52 0 0.0 0.0 0.00 0.00 0.00 83 1016.4
20220524181105 52 0 0.0 0.0 0.00 0.00 0.00 83 1016.4
20220524180604 52 0 0.0 0.0 0.00 0.00 0.00 82 1016.4
20220524180105 52 0 0.0 0.0 0.00 0.00 0.00 82 1016.4
20220524175605 53 359 0.0 0.0 0.00 0.00 0.00 81 1016.4
20220524175105 53 359 0.0 0.0 0.00 0.00 0.00 81 1016.5
20220524174605 53 0 0.0 0.0 0.00 0.00 0.00 81 1016.5
20220524174105 53 355 0.0 0.0 0.00 0.00 0.00 81 1016.4
20220524173604 53 0 0.0 0.0 0.00 0.00 0.00 81 1016.4
20220524173105 53 347 0.0 0.0 0.00 0.00 0.00 81 1016.4
20220524172605 53 355 0.0 0.0 0.00 0.00 0.00 81 1016.4
20220524172105 53 359 0.0 0.0 0.00 0.00 0.00 81 1016.4
20220524171604 53 357 0.0 0.0 0.00 0.00 0.00 81 1016.4
20220524171105 53 357 0.0 0.0 0.00 0.00 0.00 81 1016.5
20220524170605 53 0 0.0 0.0 0.00 0.00 0.00 80 1016.5
20220524170105 53 355 0.0 0.0 0.00 0.00 0.00 80 1016.5
20220524165606 53 358 0.0 0.0 0.00 0.00 0.00 80 1016.6
20220524165105 53 352 0.0 0.0 0.00 0.00 0.00 81 1016.6
20220524164605 53 343 0.0 0.0 0.00 0.00 0.00 81 1016.4
20220524164104 53 356 0.0 0.0 0.00 0.00 0.00 80 1016.5
20220524163604 53 357 0.0 0.0 0.00 0.00 0.00 81 1016.5
20220524163105 53 357 0.0 0.0 0.00 0.00 0.00 81 1016.5
20220524162605 53 333 0.0 0.0 0.00 0.00 0.00 81 1016.5
20220524162105 53 345 0.0 0.0 0.00 0.00 0.00 81 1016.6
20220524161605 53 358 0.0 0.0 0.00 0.00 0.00 81 1016.6
20220524161105 53 357 0.0 0.0 0.00 0.00 0.00 82 1016.5
20220524160604 52 359 0.0 0.0 0.00 0.00 0.00 82 1016.6
20220524160105 52 352 0.0 0.0 0.00 0.00 0.00 82 1016.5
20220524155605 52 337 0.0 0.0 0.00 0.00 0.00 82 1016.4
20220524155104 52 353 0.0 0.0 0.00 0.00 0.00 83 1016.4
20220524154604 52 331 0.0 0.0 0.00 0.00 0.00 83 1016.4
20220524154105 52 353 0.0 0.0 0.00 0.00 0.00 84 1016.4
20220524153605 52 346 0.0 0.0 0.00 0.00 0.00 84 1016.4
20220524153105 51 331 0.0 0.0 0.00 0.00 0.00 85 1016.4
20220524152605 51 0 0.0 0.0 0.00 0.00 0.00 85 1016.4
20220524152104 51 355 0.0 0.0 0.00 0.00 0.00 85 1016.4
20220524151604 51 342 0.0 0.0 0.00 0.00 0.00 86 1016.3
20220524151104 51 356 0.0 0.0 0.00 0.00 0.00 86 1016.3
20220524150605 50 349 0.0 0.0 0.00 0.00 0.00 87 1016.3
20220524150104 50 357 0.0 0.0 0.00 0.00 0.00 87 1016.3
20220524145605 50 352 0.0 0.0 0.00 0.00 0.00 87 1016.2
20220524145104 50 349 0.0 0.0 0.00 0.00 0.00 88 1016.2
20220524144605 50 358 0.0 0.0 0.00 0.00 0.00 88 1016.1
20220524144105 50 358 0.0 0.0 0.00 0.00 0.00 88 1016.2
20220524143604 50 351 0.0 0.0 0.00 0.00 0.00 88 1016.3
20220524143104 50 358 0.0 0.0 0.00 0.00 0.00 88 1016.4
20220524142604 50 0 0.0 0.0 0.00 0.00 0.00 88 1016.4
20220524142105 50 348 0.0 0.0 0.00 0.00 0.00 89 1016.4
20220524141605 50 351 0.0 0.0 0.00 0.00 0.00 89 1016.4
20220524141105 49 0 0.0 0.0 0.00 0.00 0.00 89 1016.3
20220524140604 49 351 0.0 0.0 0.00 0.00 0.00 89 1016.3
20220524140104 49 0 0.0 0.0 0.00 0.00 0.00 89 1016.4
20220524135605 49 0 0.0 0.0 0.00 0.00 0.00 90 1016.4
20220524135105 49 356 0.0 0.0 0.00 0.00 0.00 90 1016.4
20220524134605 49 357 0.0 0.0 0.00 0.00 0.00 90 1016.4
20220524134105 49 0 0.0 0.0 0.00 0.00 0.00 90 1016.4
20220524133604 49 357 0.0 0.0 0.00 0.00 0.00 90 1016.4
20220524133104 49 356 0.0 0.0 0.00 0.00 0.00 90 1016.4
20220524132605 49 356 0.0 0.0 0.00 0.00 0.00 90 1016.4
20220524132105 49 348 0.0 0.0 0.00 0.00 0.00 89 1016.4
20220524131604 49 354 0.0 0.0 0.00 0.00 0.00 89 1016.7
20220524131104 49 347 0.0 0.0 0.00 0.00 0.00 89 1016.7
20220524130604 49 354 0.0 0.0 0.00 0.00 0.00 89 1016.7
20220524130106 49 353 0.0 0.0 0.00 0.00 0.00 88 1016.8
20220524125604 50 329 0.0 0.0 0.00 0.00 0.00 88 1016.8
20220524125104 50 0 0.0 0.0 0.00 0.00 0.00 88 1016.8
20220524124605 50 349 0.0 0.0 0.00 0.00 0.00 88 1016.9
20220524124105 49 357 0.0 0.0 0.00 0.00 0.00 88 1016.9
20220524123604 49 359 0.0 0.0 0.00 0.00 0.00 87 1016.9
20220524123104 49 226 0.0 0.0 0.00 0.00 0.00 87 1016.9
20220524122605 49 353 0.0 0.0 0.00 0.00 0.00 87 1016.9
20220524122104 49 359 0.0 0.0 0.00 0.00 0.00 87 1016.9
20220524121605 49 0 0.0 0.0 0.00 0.00 0.00 87 1017.0
20220524121104 49 0 0.0 0.0 0.00 0.00 0.00 86 1016.9
20220524120605 49 359 0.0 0.0 0.00 0.00 0.00 86 1017.1
20220524120106 49 0 0.0 0.0 0.00 0.00 0.00 86 1017.2
20220524115605 49 0 0.0 0.0 0.00 0.00 0.00 86 1017.3
20220524115104 50 0 0.0 0.0 0.00 0.00 0.00 86 1017.3
20220524114605 50 0 0.0 0.0 0.00 0.00 0.00 86 1017.2
20220524114104 50 0 0.0 0.0 0.00 0.00 0.00 85 1017.1
20220524113605 50 0 0.0 0.0 0.00 0.00 0.00 85 1017.0
20220524113104 50 0 0.0 0.0 0.00 0.00 0.00 85 1017.0
20220524112605 50 0 0.0 0.0 0.00 0.00 0.00 85 1017.0
20220524112104 50 0 0.0 0.0 0.00 0.00 0.00 85 1016.9
20220524111604 50 0 0.0 0.0 0.00 0.00 0.00 85 1017.0
20220524111105 50 0 0.0 0.0 0.00 0.00 0.00 85 1017.0
20220524110604 50 0 0.0 0.0 0.00 0.00 0.00 85 1017.0
20220524110106 50 354 0.0 0.0 0.00 0.00 0.00 85 1016.9
20220524105604 50 0 0.0 0.0 0.00 0.00 0.00 85 1016.9
20220524105104 50 351 0.0 0.0 0.00 0.00 0.00 84 1016.9
20220524104605 50 0 0.0 0.0 0.00 0.00 0.00 84 1016.9
20220524104105 50 0 0.0 0.0 0.00 0.00 0.00 84 1016.9
20220524103605 50 357 0.0 0.0 0.00 0.00 0.00 84 1016.9
20220524103104 50 0 0.0 0.0 0.00 0.00 0.00 84 1016.9
20220524102604 50 0 0.0 0.0 0.00 0.00 0.00 84 1016.9
20220524102105 50 0 0.0 0.0 0.00 0.00 0.00 84 1016.9
20220524101604 50 351 0.0 0.0 0.00 0.00 0.00 84 1016.9
20220524101104 50 349 0.0 0.0 0.00 0.00 0.00 84 1017.0
20220524100604 50 0 0.0 0.0 0.00 0.00 0.00 84 1017.1
20220524100105 50 341 0.0 0.0 0.00 0.00 0.00 84 1017.1
20220524095605 50 352 0.0 0.0 0.00 0.00 0.00 84 1017.2
20220524095105 50 264 0.0 0.0 0.00 0.00 0.00 84 1017.2
20220524094604 50 337 0.0 0.0 0.00 0.00 0.00 84 1017.2
20220524094104 50 336 0.0 0.0 0.00 0.00 0.00 84 1017.1
20220524093605 50 354 0.0 0.0 0.00 0.00 0.00 84 1017.3
20220524093104 50 351 0.0 0.0 0.00 0.00 0.00 84 1017.3
20220524092604 50 352 0.0 0.0 0.00 0.00 0.00 84 1017.2
20220524092104 50 353 0.0 0.0 0.00 0.00 0.00 84 1017.2
20220524091604 50 358 0.0 0.0 0.00 0.00 0.00 84 1017.1
20220524091104 50 358 0.0 0.0 0.00 0.00 0.00 84 1016.9
20220524090605 50 346 0.0 0.0 0.00 0.00 0.00 84 1017.0
20220524090104 50 0 0.0 0.0 0.00 0.00 0.00 84 1017.1
20220524085604 50 356 0.0 0.0 0.00 0.00 0.00 84 1017.2
20220524085105 50 347 0.0 0.0 0.00 0.00 0.00 83 1017.0
20220524084604 50 343 0.0 0.0 0.00 0.00 0.00 83 1016.9
20220524084104 50 346 0.0 0.0 0.00 0.00 0.00 83 1016.9
20220524083605 50 339 0.0 0.0 0.00 0.00 0.00 83 1017.0
20220524083104 50 348 0.0 0.0 0.00 0.00 0.00 83 1017.0
20220524082604 50 335 0.0 0.0 0.00 0.00 0.00 83 1017.1
20220524082105 50 327 0.0 0.0 0.00 0.00 0.00 83 1017.2
20220524081604 50 348 0.0 0.0 0.00 0.00 0.00 82 1017.2
20220524081104 50 313 0.0 0.0 0.00 0.00 0.00 82 1017.4
20220524080604 50 329 0.0 0.0 0.00 0.00 0.00 81 1017.3
20220524080104 51 342 0.0 0.0 0.00 0.00 0.00 81 1017.3
20220524075604 51 352 0.0 0.0 0.00 0.00 0.00 81 1017.3
20220524075105 51 302 0.0 0.0 0.00 0.00 0.00 80 1017.4
20220524074604 51 301 0.0 0.0 0.00 0.00 0.00 80 1017.4
20220524074105 51 286 0.0 0.0 0.00 0.00 0.00 79 1017.4
20220524073604 51 328 0.0 0.0 0.00 0.00 0.00 79 1017.4
20220524073105 51 344 0.0 0.0 0.00 0.00 0.00 79 1017.4
20220524072604 51 0 0.0 0.0 0.00 0.00 0.00 79 1017.4
20220524072105 51 318 0.0 0.0 0.00 0.00 0.00 78 1017.4
20220524071604 52 343 0.0 0.0 0.00 0.00 0.00 78 1017.4
20220524071104 52 292 0.0 0.0 0.00 0.00 0.00 78 1017.4
20220524070604 52 328 0.0 0.0 0.00 0.00 0.00 78 1017.3
20220524070104 52 281 0.0 0.0 0.00 0.00 0.00 78 1017.2
20220524065604 52 268 0.0 0.0 0.00 0.00 0.00 77 1017.2
20220524065104 52 281 0.0 0.0 0.00 0.00 0.00 77 1017.4
20220524064604 52 301 0.0 0.0 0.00 0.00 0.00 77 1017.4
20220524064104 52 263 0.0 0.0 0.00 0.00 0.00 77 1017.4
20220524063604 52 278 0.0 0.0 0.00 0.00 0.00 76 1017.4
20220524063104 53 290 0.0 0.0 0.00 0.00 0.00 76 1017.4
20220524062605 53 302 0.0 0.0 0.00 0.00 0.00 76 1017.4
20220524062104 53 263 0.0 0.0 0.00 0.00 0.00 76 1017.3
20220524061604 53 296 0.0 0.0 0.00 0.00 0.00 75 1017.3
20220524061104 53 297 0.0 0.0 0.00 0.00 0.00 75 1017.4
20220524060604 53 275 0.0 0.0 0.00 0.00 0.00 74 1017.4
20220524060104 53 323 0.0 0.0 0.00 0.00 0.00 74 1017.3
20220524055604 53 282 0.0 0.0 0.00 0.00 0.00 74 1017.3
20220524055105 54 295 0.0 0.0 0.00 0.00 0.00 73 1017.3
20220524054604 54 266 0.0 0.0 0.00 0.00 0.00 73 1017.4
20220524054104 54 267 0.0 0.0 0.00 0.00 0.00 72 1017.4
20220524053604 54 298 0.0 0.0 0.00 0.00 0.00 72 1017.4
20220524053104 54 307 0.0 0.0 0.00 0.00 0.00 71 1017.4
20220524052604 54 343 0.0 0.0 0.00 0.00 0.00 71 1017.4
20220524052104 54 261 0.0 0.0 0.00 0.00 0.00 71 1017.4
20220524051604 55 310 0.0 0.0 0.00 0.00 0.00 70 1017.5
20220524051105 55 284 0.0 0.0 0.00 0.00 0.00 70 1017.5
20220524050606 55 299 0.0 0.0 0.00 0.00 0.00 70 1017.5
20220524050106 55 296 0.0 0.0 0.00 0.00 0.00 69 1017.5
20220524045606 55 273 0.0 0.0 0.00 0.00 0.00 69 1017.5
20220524045106 55 285 0.0 0.0 0.00 0.00 0.00 69 1017.6
20220524044606 56 284 0.0 0.0 0.00 0.00 0.00 68 1017.6
20220524044105 56 279 0.0 0.0 0.00 0.00 0.00 68 1017.7
20220524043605 56 256 0.0 0.0 0.00 0.00 0.00 67 1017.8
20220524043106 56 257 0.0 0.0 0.00 0.00 0.00 67 1017.8
20220524042606 56 296 0.0 0.0 0.00 0.00 0.00 66 1017.8
20220524042107 57 270 0.0 0.0 0.00 0.00 0.00 66 1017.9
20220524041605 57 325 0.0 0.0 0.00 0.00 0.00 65 1017.9
20220524041105 57 293 0.0 0.0 0.00 0.00 0.00 65 1017.9
20220524040605 57 321 0.0 0.0 0.00 0.00 0.00 65 1017.9
20220524040106 57 324 0.0 0.0 0.00 0.00 0.00 65 1017.9
20220524035606 58 298 0.0 0.0 0.00 0.00 0.00 64 1017.9
20220524035106 58 339 0.0 0.0 0.00 0.00 0.00 64 1017.9
20220524034606 58 305 0.0 0.0 0.00 0.00 0.00 64 1017.9
20220524034105 58 278 0.0 0.0 0.00 0.00 0.00 64 1017.9
20220524033606 58 287 0.0 0.0 0.00 0.00 0.00 64 1017.9
20220524033106 59 307 0.0 0.0 0.00 0.00 0.00 63 1017.9
20220524032606 59 297 0.0 0.0 0.00 0.00 0.00 63 1017.9
20220524032106 59 301 0.0 0.0 0.00 0.00 0.00 63 1017.9
20220524031606 60 276 0.0 0.0 0.00 0.00 0.00 62 1017.9
20220524031105 60 321 0.0 0.0 0.00 0.00 0.00 62 1017.9
20220524030606 60 281 0.0 0.0 0.00 0.00 0.00 61 1017.9
20220524030106 61 299 0.0 0.0 0.00 0.00 0.00 60 1017.9
20220524025606 61 318 0.0 0.0 0.00 0.00 0.00 59 1017.7
20220524025106 61 331 0.0 0.0 0.00 0.00 0.00 58 1017.7
20220524024606 62 277 0.0 0.0 0.00 0.00 0.00 57 1017.9
20220524024105 62 271 0.0 0.0 0.00 0.00 0.00 57 1017.9
20220524023606 62 294 0.0 0.0 0.00 0.00 0.00 57 1017.9
20220524023105 62 298 0.0 0.0 0.00 0.00 0.00 56 1017.9
20220524022606 63 260 0.0 0.0 0.00 0.00 0.00 55 1018.0
20220524022105 63 319 0.0 0.0 0.00 0.00 0.00 55 1018.0
20220524021606 63 275 0.0 0.0 0.00 0.00 0.00 55 1018.0
20220524021106 64 279 0.0 0.0 0.00 0.00 0.00 56 1017.9
20220524020605 64 312 0.0 0.0 0.00 0.00 0.00 56 1017.9
20220524020106 64 289 0.0 0.0 0.00 0.00 0.00 56 1017.9
20220524015605 64 295 0.0 0.0 0.00 0.00 0.00 56 1017.9
20220524015106 64 285 0.0 0.0 0.00 0.00 0.00 56 1018.0
20220524014606 64 283 0.0 0.0 0.00 0.00 0.00 56 1018.0
20220524014106 64 347 0.0 0.0 0.00 0.00 0.00 56 1018.0
20220524013606 64 240 0.0 0.0 0.00 0.00 0.00 56 1018.1
20220524013106 64 301 0.0 0.0 0.00 0.00 0.00 56 1018.1
20220524012606 64 279 0.0 0.0 0.00 0.00 0.00 56 1018.1
20220524012106 64 326 0.0 0.0 0.00 0.00 0.00 56 1018.1
20220524011606 64 332 0.0 0.0 0.00 0.00 0.00 56 1018.1
20220524011106 64 243 0.0 0.0 0.00 0.00 0.00 57 1018.1
20220524010605 64 275 0.0 0.0 0.00 0.00 0.00 57 1018.2
20220524010106 65 283 0.0 0.0 0.00 0.00 0.00 56 1018.2
20220524005606 65 323 0.0 0.0 0.00 0.00 0.00 55 1018.2
20220524005106 65 311 0.0 0.0 0.00 0.00 0.00 56 1018.3
20220524004606 65 351 0.0 0.0 0.00 0.00 0.00 55 1018.4
20220524004105 65 257 0.0 0.0 0.00 0.00 0.00 56 1018.4
20220524003607 65 289 0.0 0.0 0.00 0.00 0.00 54 1018.4
20220524003105 65 287 0.0 0.0 0.00 0.00 0.00 55 1018.4
20220524002605 65 328 0.0 0.0 0.00 0.00 0.00 54 1018.4
20220524002105 65 227 0.0 0.0 0.00 0.00 0.00 54 1018.5
20220524001605 65 243 0.0 0.0 0.00 0.00 0.00 54 1018.5
20220524001105 65 329 0.0 0.0 0.00 0.00 0.00 54 1018.5
20220524000605 65 272 0.0 0.0 0.00 0.00 0.00 55 1018.7
20220524000106 65 253 0.0 0.0 0.00 0.00 0.00 54 1018.7
20220523235606 65 281 0.0 0.0 0.00 0.00 0.00 54 1018.7
20220523235106 65 270 0.0 0.0 0.00 0.00 0.00 55 1018.8
20220523234606 65 278 0.0 0.0 0.00 0.00 0.00 55 1018.9
20220523234105 65 325 0.0 0.0 0.00 0.00 0.00 56 1018.7
20220523233607 65 300 0.0 0.0 0.00 0.00 0.00 55 1018.7
20220523233105 65 322 0.0 0.0 0.00 0.00 0.00 55 1018.7
20220523232606 65 273 0.0 0.0 0.00 0.00 0.00 55 1018.7
20220523232107 66 300 0.0 0.0 0.00 0.00 0.00 54 1018.7
20220523231606 66 281 0.0 0.0 0.00 0.00 0.00 54 1018.8
20220523231105 66 294 0.0 0.0 0.00 0.00 0.00 55 1018.9
20220523230605 65 290 0.0 0.0 0.00 0.00 0.00 55 1018.8
20220523230106 64 295 0.0 0.0 0.00 0.00 0.00 58 1018.8
20220523225605 64 293 0.0 0.0 0.00 0.00 0.00 58 1018.9
20220523225105 64 307 0.0 0.0 0.00 0.00 0.00 56 1018.9
20220523224605 65 326 0.0 0.0 0.00 0.00 0.00 55 1018.9
20220523224105 66 316 0.0 0.0 0.00 0.00 0.00 54 1018.9
20220523223606 66 314 0.0 0.0 0.00 0.00 0.00 54 1019.0
20220523223105 65 304 0.0 0.0 0.00 0.00 0.00 56 1018.9
20220523222605 65 297 0.0 0.0 0.00 0.00 0.00 55 1018.9
20220523222105 64 295 0.0 0.0 0.00 0.00 0.00 58 1018.8
20220523221605 65 322 0.0 0.0 0.00 0.00 0.00 57 1018.8
20220523221105 65 332 0.0 0.0 0.00 0.00 0.00 56 1018.9
20220523220605 65 251 0.0 0.0 0.00 0.00 0.00 56 1018.9
20220523220105 65 291 0.0 0.0 0.00 0.00 0.00 58 1018.9
20220523215605 65 279 0.0 0.0 0.00 0.00 0.00 56 1018.9
20220523215105 65 290 0.0 0.0 0.00 0.00 0.00 56 1018.9
20220523214605 65 313 0.0 0.0 0.00 0.00 0.00 56 1018.9
20220523214105 65 293 0.0 0.0 0.00 0.00 0.00 56 1018.8
20220523213606 65 307 0.0 0.0 0.00 0.00 0.00 55 1018.9
20220523213107 66 300 0.0 0.0 0.00 0.00 0.00 54 1019.0
20220523212605 66 299 0.0 0.0 0.00 0.00 0.00 54 1018.9
20220523212105 66 278 0.0 0.0 0.00 0.00 0.00 54 1018.9
20220523211605 66 333 0.0 0.0 0.00 0.00 0.00 54 1019.0
20220523211105 65 280 0.0 0.0 0.00 0.00 0.00 55 1018.9
20220523210605 65 301 0.0 0.0 0.00 0.00 0.00 55 1019.0
20220523210105 65 345 0.0 0.0 0.00 0.00 0.00 56 1019.0
20220523205605 65 333 0.0 0.0 0.00 0.00 0.00 56 1019.0
20220523205105 65 340 0.0 0.0 0.00 0.00 0.00 56 1019.0
20220523204605 65 345 0.0 0.0 0.00 0.00 0.00 55 1019.0
20220523204105 65 343 0.0 0.0 0.00 0.00 0.00 56 1019.0
20220523203606 65 310 0.0 0.0 0.00 0.00 0.00 56 1019.0
20220523203105 65 320 0.0 0.0 0.00 0.00 0.00 55 1018.9
20220523202605 66 254 0.0 0.0 0.00 0.00 0.00 55 1018.9
20220523202105 65 330 0.0 0.0 0.00 0.00 0.00 55 1018.9
20220523201605 65 325 0.0 0.0 0.00 0.00 0.00 56 1019.0
20220523201106 64 337 0.0 0.0 0.00 0.00 0.00 57 1019.0
20220523200606 63 321 0.0 0.0 0.00 0.00 0.00 58 1019.0
20220523200105 63 344 0.0 0.0 0.00 0.00 0.00 60 1019.0
20220523195605 63 287 0.0 0.0 0.00 0.00 0.00 59 1019.0
20220523195105 62 302 0.0 0.0 0.00 0.00 0.00 62 1019.0
20220523194605 61 316 0.0 0.0 0.00 0.00 0.00 63 1019.0
20220523194105 60 295 0.0 0.0 0.00 0.00 0.00 64 1019.1
20220523193606 59 293 0.0 0.0 0.00 0.00 0.00 67 1019.1
20220523193104 59 298 0.0 0.0 0.00 0.00 0.00 67 1019.1
20220523192606 59 323 0.0 0.0 0.00 0.00 0.00 68 1019.1
20220523192105 59 323 0.0 0.0 0.00 0.00 0.00 68 1019.0
20220523191605 59 333 0.0 0.0 0.00 0.00 0.00 69 1019.1
20220523191105 58 310 0.0 0.0 0.00 0.00 0.00 72 1019.1
20220523190605 58 278 0.0 0.0 0.00 0.00 0.00 72 1019.1
20220523190105 57 344 0.0 0.0 0.00 0.00 0.00 71 1019.2
20220523185605 57 341 0.0 0.0 0.00 0.00 0.00 72 1019.3
20220523185105 57 319 0.0 0.0 0.00 0.00 0.00 72 1019.2
20220523184605 58 309 0.0 0.0 0.00 0.00 0.00 70 1019.2
20220523184105 58 341 0.0 0.0 0.00 0.00 0.00 67 1019.1
20220523183605 59 344 0.0 0.0 0.00 0.00 0.00 62 1019.0
20220523183105 59 305 0.0 0.0 0.00 0.00 0.00 61 1019.0